User: anonymous
Location: Melbourne
(37.8170°S, 144.9670°E)
Time: 13:44:27
(UTC+10:00)
Language:

ADEOS Rocket - Orbit

View from above orbital plane
View from above orbital plane
View from above satellite
View from above satellite

Ground track
Ground track

The orbit data is extracted from the following two-line orbital elements,

1 24279U 96046C   14212.79836681 -.00000047  00000-0 -16012-4 0  6957
2 24279 098.7448 274.8520 0301172 091.2671 042.3176 13.46988489882690
Epoch (UTC): 31 July 2014 19:09:38
Eccentricity: 0.0301172
inclination: 98.7448°
perigee height: 858 km
apogee height: 1308 km
right ascension of ascending node: 274.8520°
argument of perigee: 91.2671°
revolutions per day: 13.46988489
mean anomaly at epoch: 42.3176°
orbit number at epoch: 88269

The dashed part of the orbit path shows where the satellite is in the earth's shadow,  

DLR